NOZ7JP LIRP-ENGM

Flight info

Callsign NOZ7JP
Flight time N/A
Altitude 36000
Route BEROK L153 OSBUL/N0442F340 DCT TAGIP/N0445F360 DCT BRENO DCT KONIN DCT EXITI DCT BAGOS DCT VADIN DCT SABAK L997 LUNIP
Aircraft B738/M-SADE3GHIJ1LRWXY/LB1

Departure

Time 2026-04-30 10:43
Airport Pisa International Airport (LIRP)

Arrival

Time N/A
Airport Oslo-Gardermoen International Airport (ENGM)
Time Latitude Longitude Altitude Speed Heading
2026-04-30 10:28 43.69759 10.40092 13 ft 0 kts
2026-04-30 10:37 43.69754 10.40091 14 ft 2 kts
2026-04-30 10:37 43.69738 10.40087 14 ft 2 kts 11°
2026-04-30 10:37 43.69722 10.40082 16 ft 2 kts 11°
2026-04-30 10:37 43.69707 10.40086 14 ft 2 kts 294°
2026-04-30 10:38 43.69704 10.40108 14 ft 2 kts 262°
2026-04-30 10:38 43.69708 10.40130 13 ft 2 kts 248°
2026-04-30 10:38 43.69713 10.40144 13 ft 1 kts 244°
2026-04-30 10:38 43.69713 10.40146 13 ft 0 kts 243°
2026-04-30 10:39 43.69713 10.40145 13 ft 1 kts 243°
2026-04-30 10:39 43.69700 10.40110 13 ft 7 kts 243°
2026-04-30 10:39 43.69672 10.40058 13 ft 7 kts 207°
2026-04-30 10:40 43.69625 10.40058 14 ft 7 kts 171°
2026-04-30 10:40 43.69578 10.40067 14 ft 7 kts 171°
2026-04-30 10:40 43.69521 10.40078 15 ft 9 kts 172°
2026-04-30 10:40 43.69461 10.40090 16 ft 9 kts 172°
2026-04-30 10:41 43.69402 10.40103 18 ft 8 kts 169°
2026-04-30 10:41 43.69354 10.40157 16 ft 11 kts 126°
2026-04-30 10:41 43.69299 10.40262 11 ft 16 kts 126°
2026-04-30 10:41 43.69235 10.40312 9 ft 11 kts 210°
2026-04-30 10:42 43.69144 10.40217 10 ft 37 kts 217°
2026-04-30 10:42 43.68766 10.39827 9 ft 98 kts 217°
2026-04-30 10:42 43.68075 10.39113 11 ft 148 kts 217°
2026-04-30 10:42 43.67144 10.38154 100 ft 178 kts 215°
2026-04-30 10:43 43.66126 10.37193 595 ft 179 kts 205°
2026-04-30 10:43 43.65063 10.36265 1011 ft 187 kts 206°
2026-04-30 10:43 43.63899 10.35260 1310 ft 201 kts 211°
2026-04-30 10:43 43.63090 10.33795 1922 ft 198 kts 258°
2026-04-30 10:44 43.63217 10.31932 2107 ft 201 kts 308°
2026-04-30 10:44 43.64258 10.30726 2267 ft 199 kts 349°
2026-04-30 10:44 43.65650 10.30318 2446 ft 212 kts
2026-04-30 10:44 43.67163 10.30375 2787 ft 220 kts 10°
2026-04-30 10:45 43.68708 10.30547 3202 ft 226 kts 11°
2026-04-30 10:45 43.70331 10.30741 3456 ft 243 kts 10°
2026-04-30 10:45 43.72038 10.30937 3961 ft 249 kts 10°
2026-04-30 10:45 43.73783 10.31126 4567 ft 253 kts 10°
2026-04-30 10:46 43.75558 10.31310 5170 ft 259 kts
2026-04-30 10:46 43.77340 10.31487 5795 ft 261 kts
2026-04-30 10:46 43.79153 10.31664 6478 ft 260 kts
2026-04-30 10:46 43.80977 10.31842 7029 ft 265 kts
2026-04-30 10:47 43.82824 10.32017 7713 ft 265 kts
2026-04-30 10:47 43.84660 10.32192 8413 ft 266 kts
2026-04-30 10:47 43.86505 10.32366 9127 ft 266 kts
2026-04-30 10:47 43.88379 10.32543 9709 ft 273 kts
2026-04-30 10:48 43.90300 10.32723 10267 ft 278 kts
2026-04-30 10:48 43.92234 10.32904 10688 ft 290 kts
2026-04-30 10:48 43.94324 10.33100 10842 ft 312 kts
2026-04-30 10:48 43.96549 10.33308 11098 ft 328 kts